User: anonymous   Login
Location: Unspecified
(0.0000°N, 0.0000°E)
Time: 07:48:18
(UTC+00:00)
Language:

USA 247 - Orbit

View from above orbital plane
View from above orbital plane
View from above satellite
View from above satellite

Ground track
Ground track

The orbit data is extracted from the following two-line orbital elements,

1 39462U 13072A   15086.93522348 0.00000000  00000-0  00000-0 0    06
2 39462 122.9957 264.6867 0012250 183.6343 176.3656 13.41455308    06
Epoch (UTC): 27 March 2015 22:26:43
Eccentricity: 0.0012250
inclination: 122.9957°
perigee height: 1094 km
apogee height: 1113 km
right ascension of ascending node: 264.6867°
argument of perigee: 183.6343°
revolutions per day: 13.41455308
mean anomaly at epoch: 176.3656°
orbit number at epoch: 0

The dashed part of the orbit path shows where the satellite is in the earth's shadow,  

DLR